Location: Creola (historical)
(38.1334°N, 100.5024°W)
Time: 06:57:12
(UTC+00:00)

CBERS 1 LM4 rocket - Pass Details

Date: 18 October 2021
Orbit: 700 x 843 km, 98.8° (Epoch: 30 November)

Event Time Altitude Azimuth Distance (km) Brightness Sun altitude
Rises 11:59:37 0° 10° (N) 3,263 7.8 -11.4°
Reaches altitude 10° 12:02:00 10° 7° (N) 2,309 7.0 -11.0°
Maximum altitude 12:07:00 64° 287° (WNW) 823 4.4 -10.0°
Drops below altitude 10° 12:11:47 10° 206° (SSW) 2,209 6.7 -9.0°
Sets 12:14:01 0° 203° (SSW) 3,110 7.5 -8.6°
